NOAA 16 DEB, 42363

Orbit data source: Space-Track

NOAA 16 DEB, 42363 is space debris in SSO originally from a launch on Thu, 21 Sep 2000 UTC launched from the Air Force Western Test Range (AFWTR). Debris objects in space refer to the collection of defunct objects orbiting the Earth. Examples of debris include non-operational satellites, rocket bodies, and fragments generated from explosions, collisions, or faulty payload assembly.

Loading next visibility...
Identifier
42363, 2000-055RF
Orbit
SSO
Country
Flag of USUS
Related business
Manufacturer
Unknown
Mission
Spacecraft
Bus & Motor
Unknown
Mass
Unknown
Launch date (UTC)
2000-09-21 (26 years ago)
Launch vehicle
Unknown
Launch site
Air Force Western Test Range (AFWTR)
Object type
Payload
Rocket body
Debris
Shape & HBR
Unknown shape, 0.1 m
Radar Cross Section
Small (<0.1 m²)

Expand to show TLE details & history
Last TLE update: 5 days ago

TLE from 5 days ago
0 NOAA 16 DEB
1 42363U 00055RF  26167.25822300  .00002807  00000-0  14567-2 0  9994
2 42363  98.7956 169.2144 0064166  34.8083 325.7262 14.14504345528294
Epoch: 2026-06-16T06:11Z
TLE epoch observation values (Epoch: 2026-06-16T06:11:50.467Z)
Latitude
-0.00003°
Longitude
171.72129°
Altitude
808.696 km
Speed
7.469 km/s
True Right ascension
11h 16m 51s
True Declination
0° 00' 00"
Sunlit
Object was in daylight at epoch
Visualization orbit readout
Latitude
Unknown
Longitude
Unknown
Altitude
Unknown
Speed
Unknown
Apparent Right ascension
Unknown
Apparent Declination
Unknown
Sunlit
N/A
Visualization observer readout
Local Sidereal Time
17:36:48
Azimuth
Unknown
Elevation
Unknown
Doppler factor
Unknown
Orbital elements
Apogee altitude
887.492 km
Perigee altitude
794.845 km
Semi-major axis
7,219.306 km
Eccentricity
0.00642
Inclination
98.7956°
RAAN
169.2144°
Arg. of periapsis
34.8083°
True anomaly
325.30937°
Mean anomaly
325.7262°
Eccentric anomaly
325.51806°
Mean motion
3.53834 °/min
Orbital period
101.74 mins
BSTAR
0.0014567
Loading maneuver chart data...
Computing Atmospheric mass density...
Loading historical data...
Loading historical data...
Loading historical data...
Loading historical data...
Loading historical data...
Loading historical data...
Loading historical data...

Documentation

Showing up to 5 results
|